| time (UTC) | temp C | wind direction | speed KPH | gust KPH | rain 1hr cm | rain 24hr cm | rain mn cm | humidity % | barometer mb |
| 20260507004002 | 11 | 360 | 1.6 | 6.4 | 0.00 | 0.00 | 0.00 | 51 | |
| 20260507003003 | 11 | 360 | 1.6 | 3.2 | 0.00 | 0.00 | 0.00 | 51 | |
| 20260507002003 | 11 | 360 | 1.6 | 4.8 | 0.00 | 0.00 | 0.00 | 51 | |
| 20260507001003 | 11 | 360 | 1.6 | 3.2 | 0.00 | 0.00 | 0.00 | 51 | |
| 20260507000004 | 11 | 360 | 1.6 | 3.2 | 0.00 | 0.00 | 0.00 | 51 | |
| 20260506235002 | 11 | 360 | 1.6 | 3.2 | 0.00 | 0.00 | 0.00 | 51 | |
| 20260506234002 | 11 | 360 | 1.6 | 6.4 | 0.00 | 0.00 | 0.00 | 51 | |
| 20260506233003 | 11 | 360 | 1.6 | 3.2 | 0.00 | 0.00 | 0.00 | 51 | |
| 20260506232002 | 11 | 360 | 1.6 | 4.8 | 0.00 | 0.00 | 0.00 | 51 | |
| 20260506231003 | 10 | 360 | 0.0 | 3.2 | 0.00 | 0.00 | 0.00 | 51 | |
| 20260506230009 | 11 | 360 | 0.0 | 4.8 | 0.00 | 0.00 | 0.00 | 51 | |
| 20260506225003 | 11 | 360 | 1.6 | 4.8 | 0.00 | 0.00 | 0.00 | 51 | |
| 20260506224002 | 11 | 360 | 1.6 | 4.8 | 0.00 | 0.00 | 0.00 | 51 | |
| 20260506223002 | 11 | 360 | 1.6 | 8.0 | 0.00 | 0.00 | 0.00 | 51 | |
| 20260506222002 | 11 | 360 | 3.2 | 9.7 | 0.00 | 0.00 | 0.00 | 51 | |
| 20260506221003 | 11 | 360 | 0.0 | 6.4 | 0.00 | 0.00 | 0.00 | 51 | |
| 20260506220004 | 11 | 360 | 1.6 | 4.8 | 0.00 | 0.00 | 0.00 | 51 | |
| 20260506215003 | 11 | 360 | 1.6 | 4.8 | 0.00 | 0.00 | 0.00 | 51 | |
| 20260506214002 | 11 | 360 | 1.6 | 6.4 | 0.00 | 0.00 | 0.00 | 51 | |
| 20260506213003 | 11 | 360 | 0.0 | 4.8 | 0.00 | 0.00 | 0.00 | 51 | |
| 20260506212003 | 11 | 360 | 1.6 | 4.8 | 0.00 | 0.00 | 0.00 | 51 | |
| 20260506211003 | 11 | 360 | 3.2 | 6.4 | 0.00 | 0.00 | 0.00 | 51 | |
| 20260506210004 | 11 | 360 | 1.6 | 6.4 | 0.00 | 0.00 | 0.00 | 51 | |
| 20260506205003 | 12 | 360 | 3.2 | 8.0 | 0.00 | 0.00 | 0.00 | 52 | |
| 20260506204004 | 12 | 360 | 3.2 | 8.0 | 0.00 | 0.00 | 0.00 | 52 | |
| 20260506203002 | 11 | 265 | 0.0 | 6.4 | 0.00 | 0.00 | 0.00 | 51 | |
| 20260506202003 | 12 | 360 | 1.6 | 6.4 | 0.00 | 0.00 | 0.00 | 52 | |
| 20260506201003 | 11 | 360 | 1.6 | 4.8 | 0.00 | 0.00 | 0.00 | 51 | |
| 20260506200003 | 11 | 360 | 0.0 | 3.2 | 0.00 | 0.00 | 0.00 | 51 | |
| 20260506195003 | 11 | 360 | 1.6 | 4.8 | 0.00 | 0.00 | 0.00 | 51 | |
| 20260506194003 | 11 | 360 | 1.6 | 3.2 | 0.00 | 0.00 | 0.00 | 51 | |
| 20260506193002 | 11 | 360 | 0.0 | 3.2 | 0.00 | 0.00 | 0.00 | 51 | |
| 20260506192002 | 11 | 360 | 0.0 | 3.2 | 0.00 | 0.00 | 0.00 | 51 | |
| 20260506191003 | 11 | 360 | 0.0 | 4.8 | 0.00 | 0.00 | 0.00 | 51 | |
| 20260506190004 | 11 | 360 | 0.0 | 6.4 | 0.00 | 0.00 | 0.00 | 51 | |
| 20260506185003 | 11 | 0 | 0.0 | 3.2 | 0.00 | 0.00 | 0.00 | 51 | |
| 20260506184003 | 11 | 360 | 1.6 | 3.2 | 0.00 | 0.00 | 0.00 | 51 | |
| 20260506183004 | 11 | 360 | 0.0 | 4.8 | 0.00 | 0.00 | 0.00 | 51 | |
| 20260506182007 | 11 | 360 | 1.6 | 6.4 | 0.00 | 0.00 | 0.00 | 51 | |
| 20260506181004 | 11 | 360 | 0.0 | 6.4 | 0.00 | 0.00 | 0.00 | 51 | |
| 20260506180004 | 11 | 360 | 0.0 | 3.2 | 0.00 | 0.00 | 0.00 | 51 | |
| 20260506175003 | 11 | 360 | 1.6 | 6.4 | 0.00 | 0.00 | 0.00 | 51 | |
| 20260506174003 | 11 | 360 | 0.0 | 3.2 | 0.00 | 0.00 | 0.00 | 51 | |
| 20260506173003 | 11 | 360 | 1.6 | 4.8 | 0.00 | 0.00 | 0.00 | 51 | |
| 20260506172003 | 11 | 360 | 1.6 | 4.8 | 0.00 | 0.00 | 0.00 | 51 | |
| 20260506171002 | 11 | 360 | 1.6 | 8.0 | 0.00 | 0.00 | 0.00 | 51 | |
| 20260506170003 | 11 | 360 | 1.6 | 6.4 | 0.00 | 0.00 | 0.00 | 51 | |
| 20260506165003 | 11 | 220 | 0.0 | 6.4 | 0.00 | 0.00 | 0.00 | 51 | |
| 20260506164003 | 11 | 360 | 0.0 | 3.2 | 0.00 | 0.00 | 0.00 | 51 | |
| 20260506163003 | 11 | 360 | 0.0 | 4.8 | 0.00 | 0.00 | 0.00 | 51 | |
| 20260506162003 | 11 | 0 | 0.0 | 0.0 | 0.00 | 0.00 | 0.00 | 51 | |
| 20260506161002 | 11 | 0 | 0.0 | 0.0 | 0.00 | 0.00 | 0.00 | 51 | |
| 20260506160003 | 10 | 0 | 0.0 | 1.6 | 0.00 | 0.00 | 0.00 | 51 | |
| 20260506155003 | 11 | 360 | 0.0 | 4.8 | 0.00 | 0.00 | 0.00 | 51 | |
| 20260506154003 | 11 | 360 | 0.0 | 3.2 | 0.00 | 0.00 | 0.00 | 51 | |
| 20260506153003 | 10 | 360 | 0.0 | 3.2 | 0.00 | 0.00 | 0.00 | 50 | |
| 20260506152003 | 10 | 0 | 0.0 | 0.0 | 0.00 | 0.00 | 0.00 | 50 | |
| 20260506151003 | 10 | 0 | 0.0 | 0.0 | 0.00 | 0.00 | 0.00 | 50 | |
| 20260506150003 | 10 | 360 | 0.0 | 3.2 | 0.00 | 0.00 | 0.00 | 50 | |
| 20260506145002 | 10 | 360 | 1.6 | 3.2 | 0.00 | 0.00 | 0.00 | 50 | |
| 20260506144003 | 10 | 110 | 0.0 | 1.6 | 0.00 | 0.00 | 0.00 | 50 | |
| 20260506143003 | 10 | 0 | 0.0 | 0.0 | 0.00 | 0.00 | 0.00 | 50 | |
| 20260506142003 | 10 | 0 | 0.0 | 0.0 | 0.00 | 0.00 | 0.00 | 50 | |
| 20260506141003 | 10 | 0 | 0.0 | 6.4 | 0.00 | 0.00 | 0.00 | 50 | |
| 20260506140003 | 10 | 0 | 0.0 | 0.0 | 0.00 | 0.00 | 0.00 | 50 | |
| 20260506135003 | 10 | 360 | 0.0 | 1.6 | 0.00 | 0.00 | 0.00 | 50 | |
| 20260506134003 | 10 | 360 | 0.0 | 1.6 | 0.00 | 0.00 | 0.00 | 50 | |
| 20260506133003 | 10 | 360 | 0.0 | 3.2 | 0.00 | 0.00 | 0.00 | 50 | |
| 20260506132003 | 10 | 360 | 0.0 | 3.2 | 0.00 | 0.00 | 0.00 | 50 | |
| 20260506131003 | 10 | 360 | 0.0 | 1.6 | 0.00 | 0.00 | 0.00 | 50 | |
| 20260506130003 | 10 | 360 | 0.0 | 0.0 | 0.00 | 0.00 | 0.00 | 50 | |
| 20260506125002 | 10 | 360 | 0.0 | 1.6 | 0.00 | 0.00 | 0.00 | 50 | |
| 20260506124002 | 10 | 360 | 0.0 | 1.6 | 0.00 | 0.00 | 0.00 | 50 | |
| 20260506123003 | 10 | 360 | 0.0 | 1.6 | 0.00 | 0.00 | 0.00 | 50 | |
| 20260506122003 | 10 | 0 | 0.0 | 1.6 | 0.00 | 0.00 | 0.00 | 50 | |
| 20260506121003 | 10 | 360 | 0.0 | 1.6 | 0.00 | 0.00 | 0.00 | 50 | |
| 20260506120004 | 10 | 360 | 0.0 | 1.6 | 0.00 | 0.00 | 0.00 | 50 | |
| 20260506115003 | 10 | 360 | 0.0 | 1.6 | 0.00 | 0.00 | 0.00 | 50 | |
| 20260506114003 | 10 | 360 | 0.0 | 0.0 | 0.00 | 0.00 | 0.00 | 50 | |
| 20260506113019 | 10 | 0 | 0.0 | 1.6 | 0.00 | 0.00 | 0.00 | 50 | |
| 20260506112002 | 10 | 0 | 0.0 | 0.0 | 0.00 | 0.00 | 0.00 | 50 | |
| 20260506111002 | 10 | 360 | 0.0 | 1.6 | 0.00 | 0.00 | 0.00 | 50 | |
| 20260506110003 | 10 | 0 | 0.0 | 1.6 | 0.00 | 0.00 | 0.00 | 50 | |
| 20260506105003 | 10 | 0 | 0.0 | 1.6 | 0.00 | 0.00 | 0.00 | 50 | |
| 20260506104003 | 10 | 360 | 0.0 | 3.2 | 0.00 | 0.00 | 0.00 | 50 | |
| 20260506103004 | 10 | 360 | 0.0 | 1.6 | 0.00 | 0.00 | 0.00 | 50 | |
| 20260506102002 | 10 | 360 | 0.0 | 1.6 | 0.00 | 0.00 | 0.00 | 50 | |
| 20260506101002 | 10 | 0 | 0.0 | 1.6 | 0.00 | 0.00 | 0.00 | 50 | |
| 20260506100009 | 10 | 360 | 0.0 | 1.6 | 0.00 | 0.00 | 0.00 | 50 | |
| 20260506095003 | 10 | 360 | 0.0 | 1.6 | 0.00 | 0.00 | 0.00 | 50 | |
| 20260506094003 | 10 | 210 | 0.0 | 1.6 | 0.00 | 0.00 | 0.00 | 50 | |
| 20260506093004 | 10 | 360 | 0.0 | 1.6 | 0.00 | 0.00 | 0.00 | 50 | |
| 20260506092002 | 10 | 360 | 0.0 | 1.6 | 0.00 | 0.00 | 0.00 | 50 | |
| 20260506091002 | 10 | 360 | 0.0 | 1.6 | 0.00 | 0.00 | 0.00 | 50 | |
| 20260506090003 | 10 | 0 | 0.0 | 1.6 | 0.00 | 0.00 | 0.00 | 50 | |
| 20260506085003 | 10 | 360 | 0.0 | 3.2 | 0.00 | 0.00 | 0.00 | 50 | |
| 20260506084003 | 10 | 360 | 0.0 | 1.6 | 0.00 | 0.00 | 0.00 | 50 | |
| 20260506083003 | 10 | 360 | 0.0 | 1.6 | 0.00 | 0.00 | 0.00 | 50 | |
| 20260506082002 | 10 | 360 | 0.0 | 1.6 | 0.00 | 0.00 | 0.00 | 50 | |
| 20260506081002 | 10 | 360 | 0.0 | 1.6 | 0.00 | 0.00 | 0.00 | 50 | |
| 20260506073003 | 10 | 360 | 0.0 | 1.6 | 0.00 | 0.00 | 0.00 | 50 | |
| 20260506072003 | 10 | 0 | 0.0 | 1.6 | 0.00 | 0.00 | 0.00 | 50 | |
| 20260506071003 | 10 | 360 | 0.0 | 1.6 | 0.00 | 0.00 | 0.00 | 50 | |
| 20260506062003 | 11 | 360 | 1.6 | 3.2 | 0.00 | 0.00 | 0.00 | 51 | |
| 20260506061003 | 11 | 360 | 0.0 | 1.6 | 0.00 | 0.00 | 0.00 | 51 | |
| 20260506051003 | 11 | 360 | 0.0 | 3.2 | 0.00 | 0.00 | 0.00 | 51 | |
| 20260506045003 | 11 | 360 | 0.0 | 3.2 | 0.00 | 0.00 | 0.00 | 51 | |
| 20260506044002 | 11 | 360 | 0.0 | 3.2 | 0.00 | 0.00 | 0.00 | 51 | |
| 20260506043003 | 11 | 360 | 1.6 | 3.2 | 0.00 | 0.00 | 0.00 | 51 | |
| 20260506042002 | 11 | 360 | 0.0 | 4.8 | 0.00 | 0.00 | 0.00 | 51 | |
| 20260506041003 | 11 | 360 | 1.6 | 3.2 | 0.00 | 0.00 | 0.00 | 51 | |
| 20260506040004 | 11 | 360 | 1.6 | 3.2 | 0.00 | 0.00 | 0.00 | 51 | |
| 20260506035003 | 11 | 360 | 1.6 | 3.2 | 0.00 | 0.00 | 0.00 | 51 | |
| 20260506034003 | 11 | 360 | 1.6 | 3.2 | 0.00 | 0.00 | 0.00 | 51 | |
| 20260506033002 | 11 | 360 | 1.6 | 3.2 | 0.00 | 0.00 | 0.00 | 51 | |
| 20260506032003 | 11 | 360 | 1.6 | 3.2 | 0.00 | 0.00 | 0.00 | 51 | |
| 20260506031003 | 11 | 360 | 1.6 | 3.2 | 0.00 | 0.00 | 0.00 | 51 | |
| 20260506030004 | 12 | 360 | 1.6 | 4.8 | 0.00 | 0.00 | 0.00 | 52 | |
| 20260506025003 | 12 | 360 | 1.6 | 3.2 | 0.00 | 0.00 | 0.00 | 52 | |
| 20260506024003 | 12 | 360 | 1.6 | 3.2 | 0.00 | 0.00 | 0.00 | 52 | |
| 20260506023004 | 12 | 360 | 1.6 | 6.4 | 0.00 | 0.00 | 0.00 | 52 | |
| 20260506022002 | 12 | 360 | 1.6 | 8.0 | 0.00 | 0.00 | 0.00 | 52 | |
| 20260506021002 | 13 | 360 | 3.2 | 8.0 | 0.00 | 0.00 | 0.00 | 53 | |
| 20260506020003 | 13 | 360 | 1.6 | 3.2 | 0.00 | 0.00 | 0.00 | 53 | |
| 20260506015003 | 13 | 360 | 3.2 | 4.8 | 0.00 | 0.00 | 0.00 | 53 | |
| 20260506014003 | 13 | 360 | 1.6 | 4.8 | 0.00 | 0.00 | 0.00 | 53 | |
| 20260506013004 | 13 | 360 | 1.6 | 4.8 | 0.00 | 0.00 | 0.00 | 53 | |
| 20260506012002 | 13 | 360 | 1.6 | 6.4 | 0.00 | 0.00 | 0.00 | 54 | |
| 20260506011002 | 13 | 360 | 0.0 | 4.8 | 0.00 | 0.00 | 0.00 | 53 | |
| 20260506010003 | 13 | 360 | 3.2 | 8.0 | 0.00 | 0.00 | 0.00 | 53 | |
| 20260506005003 | 14 | 360 | 1.6 | 8.0 | 0.00 | 0.00 | 0.00 | 54 |